Total_Precipitation_Accumulation
0.03 0.07 0.12 0.15 0.15 0.12 0.08 0.05 0.08 0.11 0.21 0.26 0.35 0.42 0.48 0.46 0.45 0.42 0.43 0.39 0.38 0.46 0.63 0.72 0.85 0.86 0.79 0.77 0.87 1.01 1.12 1.22 1.39 1.53 1.54 1.43 1.44 1.56 1.66 1.71 1.66 1.77 1.75 1.70
0.03 0.06 0.10 0.12 0.14 0.10 0.07 0.06 0.06 0.08 0.15 0.21 0.35 0.37 0.43 0.40 0.37 0.42 0.45 0.43 0.41 0.51 0.66 0.69 0.71 0.77 0.77 0.78 0.82 0.86 0.98 1.10 1.31 1.49 1.55 1.55 1.60 1.72 1.77 1.76 1.85 1.89 1.83 1.80
0.04 0.07 0.09 0.17 0.13 0.09 0.09 0.08 0.07 0.11 0.16 0.20 0.30 0.42 0.51 0.53 0.56 0.55 0.45 0.40 0.44 0.50 0.57 0.67 0.64 0.66 0.76 0.82 0.90 0.99 1.13 1.28 1.39 1.48 1.57 1.61 1.62 1.70 1.77 1.78 1.76 1.81 1.83 1.81
0.10 0.11 0.16 0.17 0.13 0.12 0.12 0.13 0.16 0.20 0.23 0.28 0.31 0.40 0.51 0.54 0.54 0.54 0.55 0.61 0.66 0.73 0.75 0.75 0.71 0.72 0.82 0.87 0.94 1.01 1.10 1.21 1.29 1.45 1.58 1.67 1.81 1.89 1.96 2.02 2.03 2.02 1.94 1.89
0.17 0.15 0.18 0.21 0.20 0.20 0.22 0.26 0.28 0.36 0.41 0.41 0.40 0.42 0.53 0.60 0.59 0.65 0.64 0.68 0.77 0.83 0.87 0.81 0.85 0.92 0.99 1.00 1.07 1.14 1.20 1.37 1.50 1.58 1.71 1.77 1.82 1.95 2.09 2.18 2.14 2.12 2.09 2.12
0.26 0.27 0.29 0.30 0.31 0.26 0.28 0.53 0.50 0.52 0.57 0.56 0.60 0.76 0.86 0.86 0.78 0.75 0.75 0.77 0.85 0.85 0.84 0.91 0.94 1.01 1.09 1.16 1.30 1.38 1.41 1.50 1.60 1.75 1.81 1.80 1.80 1.88 1.94 2.00 2.04 2.05 2.00 2.07
0.37 0.36 0.36 0.35 0.35 0.35 0.61 0.89 0.88 0.87 0.84 0.76 0.84 0.91 0.84 0.78 0.86 0.83 0.86 0.94 0.91 0.90 0.94 0.96 0.95 1.00 1.12 1.26 1.39 1.46 1.48 1.53 1.63 1.72 1.88 1.94 1.96 1.88 1.80 1.82 1.87 1.93 1.97 2.04
0.58 0.68 0.70 0.49 0.52 0.73 0.93 0.90 1.07 1.02 0.92 0.91 0.89 0.84 0.76 0.76 0.89 0.98 1.02 1.09 1.07 1.04 1.00 1.00 1.05 1.11 1.21 1.34 1.42 1.48 1.49 1.56 1.64 1.67 1.68 1.70 1.86 1.90 1.86 1.84 1.84 1.87 1.95 1.95
0.81 0.90 0.81 0.68 0.70 0.79 0.76 0.78 0.93 0.94 0.85 0.84 0.82 0.78 0.74 0.78 0.84 0.87 0.93 1.02 1.04 1.07 1.08 1.11 1.17 1.25 1.37 1.42 1.49 1.50 1.57 1.70 1.79 1.77 1.75 1.74 1.75 1.81 1.80 1.72 1.61 1.56 1.66 1.73
1.09 1.11 0.97 0.83 0.72 0.72 0.72 0.74 0.78 0.86 0.91 0.89 0.85 0.82 0.82 0.82 0.84 0.93 0.98 1.03 1.09 1.07 1.10 1.21 1.32 1.44 1.46 1.42 1.51 1.67 1.73 1.74 1.75 1.76 1.70 1.73 1.82 1.76 1.71 1.70 1.60 1.46 1.54 1.66
1.53 1.60 1.40 1.22 1.04 0.93 0.88 0.85 0.89 0.99 1.02 1.07 1.06 1.03 1.00 0.93 0.90 0.91 0.96 0.97 1.03 1.11 1.15 1.24 1.30 1.40 1.50 1.53 1.58 1.67 1.63 1.54 1.54 1.57 1.54 1.52 1.62 1.69 1.57 1.53 1.55 1.49 1.60 1.79
1.85 1.72 1.68 1.55 1.27 1.11 1.07 1.10 1.04 1.08 1.10 1.09 1.07 1.06 1.04 1.03 0.92 0.85 0.85 0.94 0.99 1.05 1.13 1.21 1.27 1.33 1.36 1.42 1.51 1.61 1.66 1.59 1.53 1.49 1.50 1.53 1.53 1.53 1.49 1.33 1.32 1.28 1.33 1.41
1.56 1.53 1.55 1.49 1.31 1.15 1.15 1.15 1.17 1.18 1.14 1.10 1.07 0.98 0.92 0.96 0.98 0.92 0.91 0.93 1.00 1.08 1.12 1.16 1.19 1.25 1.26 1.33 1.48 1.61 1.67 1.68 1.61 1.44 1.35 1.32 1.34 1.35 1.36 1.26 1.04 0.99 1.00 0.96
1.56 1.50 1.52 1.46 1.42 1.26 1.24 1.17 1.15 1.13 1.06 1.04 1.08 1.04 0.93 0.90 0.99 1.06 1.07 1.08 1.15 1.20 1.14 1.09 1.09 1.12 1.17 1.21 1.28 1.36 1.40 1.46 1.42 1.32 1.26 1.18 1.13 1.10 1.09 1.17 1.15 1.01 0.92 0.84
1.30 1.31 1.42 1.39 1.34 1.32 1.32 1.27 1.20 1.11 1.01 1.05 1.12 1.12 1.08 1.06 1.12 1.25 1.28 1.31 1.32 1.29 1.18 1.08 1.07 1.10 1.12 1.18 1.20 1.17 1.25 1.27 1.24 1.25 1.30 1.28 1.26 1.20 1.12 1.10 1.19 1.23 1.13 0.92
1.19 1.27 1.28 1.35 1.46 1.38 1.28 1.23 1.21 1.16 1.07 1.06 1.10 1.10 1.05 1.04 1.11 1.20 1.26 1.38 1.47 1.47 1.34 1.25 1.15 1.06 1.04 1.15 1.21 1.18 1.19 1.29 1.22 1.14 1.16 1.24 1.25 1.20 1.21 1.29 1.31 1.41 1.41 1.14
1.25 1.29 1.25 1.27 1.38 1.40 1.30 1.21 1.24 1.19 1.14 1.16 1.17 1.08 1.04 1.04 1.13 1.21 1.20 1.20 1.24 1.24 1.20 1.18 1.10 0.99 0.97 1.05 1.10 1.13 1.14 1.16 1.19 1.13 1.12 1.14 1.14 1.14 1.16 1.27 1.38 1.44 1.42 1.22
1.18 1.11 1.08 1.11 1.15 1.21 1.22 1.24 1.25 1.16 1.11 1.13 1.16 1.10 1.04 1.04 1.15 1.29 1.29 1.24 1.12 1.04 1.04 1.01 0.94 0.89 0.88 0.90 0.93 1.01 1.06 1.10 1.12 1.12 1.13 1.11 1.11 1.17 1.22 1.35 1.46 1.52 1.42 1.28
1.20 1.09 1.01 0.98 0.93 0.95 1.05 1.12 1.13 1.11 1.05 1.03 1.07 1.06 1.02 0.98 1.07 1.19 1.21 1.29 1.30 1.23 1.11 0.98 0.88 0.78 0.80 0.82 0.82 0.87 0.92 0.98 1.03 1.06 1.06 1.03 1.04 1.08 1.11 1.19 1.32 1.40 1.34 1.30
1.27 1.21 1.06 0.96 0.93 0.87 0.89 0.90 0.99 1.06 1.00 0.94 0.93 0.94 0.93 0.94 1.04 1.21 1.27 1.35 1.44 1.37 1.22 1.07 0.81 0.70 0.65 0.66 0.69 0.67 0.70 0.71 0.72 0.76 0.79 0.83 0.88 0.90 0.90 0.94 1.07 1.14 1.10 1.15
1.30 1.23 1.12 1.00 1.00 0.94 0.89 0.81 0.85 0.94 0.92 0.96 1.00 0.99 0.96 0.93 0.98 1.18 1.45 1.58 1.45 1.26 1.16 1.13 0.85 0.65 0.55 0.58 0.65 0.64 0.66 0.66 0.64 0.67 0.67 0.71 0.75 0.78 0.85 0.93 0.97 1.00 1.03 1.05
1.24 1.18 1.09 1.01 0.96 0.96 0.93 0.84 0.81 0.86 0.88 0.92 0.88 0.87 0.92 0.92 0.93 1.06 1.23 1.44 1.36 1.24 1.01 0.95 0.82 0.61 0.52 0.48 0.47 0.54 0.60 0.64 0.65 0.68 0.71 0.72 0.74 0.78 0.83 0.83 0.84 0.86 0.89 0.96
1.22 1.14 1.05 0.95 0.88 0.88 0.87 0.86 0.82 0.80 0.81 0.82 0.80 0.83 0.90 0.92 0.91 1.05 1.15 1.03 0.97 0.98 0.84 0.81 0.78 0.65 0.54 0.48 0.47 0.50 0.54 0.59 0.62 0.63 0.63 0.64 0.69 0.72 0.75 0.77 0.78 0.77 0.84 0.88
1.15 1.18 1.11 1.03 0.90 0.83 0.85 0.86 0.81 0.78 0.77 0.78 0.78 0.81 0.86 0.86 0.81 0.79 0.82 0.84 0.85 0.82 0.73 0.77 0.71 0.60 0.51 0.48 0.52 0.54 0.56 0.58 0.60 0.60 0.59 0.62 0.68 0.74 0.80 0.85 0.86 0.83 0.84 0.82
1.08 1.06 1.05 1.04 0.95 0.87 0.84 0.82 0.83 0.86 0.81 0.78 0.75 0.76 0.78 0.77 0.75 0.72 0.69 0.70 0.74 0.70 0.66 0.70 0.66 0.62 0.55 0.56 0.60 0.62 0.60 0.61 0.62 0.62 0.63 0.67 0.73 0.80 0.85 0.86 0.85 0.81 0.78 0.77
0.98 0.96 0.97 0.94 0.89 0.90 0.90 0.87 0.89 0.89 0.84 0.79 0.78 0.76 0.70 0.67 0.71 0.76 0.81 0.79 0.73 0.71 0.63 0.61 0.59 0.63 0.61 0.65 0.70 0.70 0.67 0.65 0.64 0.61 0.65 0.73 0.78 0.83 0.82 0.75 0.72 0.72 0.69 0.65
0.90 0.92 0.93 0.91 0.89 0.89 0.87 0.83 0.86 0.92 0.90 0.84 0.86 0.84 0.81 0.83 0.84 0.84 0.83 0.84 0.80 0.74 0.66 0.62 0.58 0.55 0.58 0.62 0.64 0.66 0.66 0.66 0.65 0.67 0.71 0.74 0.73 0.70 0.66 0.61 0.61 0.60 0.56 0.56